Regional Weather Roundup
Issued by NWS

Home | Current Version | Previous Version | Graphics & Text | Print | Product List | Glossary On
Versions: 1 2 3 4 5 6 7 8 9 10 11 12 13 14 15 16 17 18 19 20 21 22 23 24 25 26 27 28 29 30 31 32 33 34 35 36 37 38 39 40 41 42 43 44 45 46 47 48 49 50
000
ASUS43 KMKX 111059
RWRWI

WISCONSIN REGIONAL WEATHER ROUNDUP
NATIONAL WEATHER SERVICE MILWAUKEE/SULLIVAN WI
500 AM CST MON DEC 11 2017

NOTE: "FAIR" INDICATES FEW OR NO CLOUDS BELOW 12,000 FEET WITH NO
SIGNIFICANT WEATHER AND/OR OBSTRUCTIONS TO VISIBILITY.

WIZ001-002-006>008-014>016-023>028-111200-
NORTHWEST WISCONSIN

CITY           SKY/WX    TMP DP  RH WIND       PRES   REMARKS
SUPERIOR ARPT  CLOUDY    19  18  95 CALM      29.79F FOG
ASHLAND        CLOUDY    19  15  84 S6        29.80F WCI  11
HAYWARD        CLOUDY    20  17  88 S6        29.77F WCI  12
SIREN          LGT SNOW  24  22  93 S5        29.77F WCI  18
CUMBERLAND     LGT SNOW  23  21  93 S9        29.78F WCI  13
RICE LAKE      LGT SNOW  22  21  96 CALM      29.81F
CHETEK           N/A     22  20  94 S6        29.81F WCI  14
LADYSMITH      LGT SNOW  22  19  91 S6        29.83S WCI  14
EAU CLAIRE     LGT SNOW  24  21  88 S8        29.82F VSB 1   WCI  15
MENOMONIE      LGT SNOW  26  24  93 SE6       29.82F WCI  19
NEW RICHMOND   LGT SNOW  25  24  94 S7        29.78F WCI  17
OSCEOLA        CLOUDY    26  26 100 SE7       29.80F WCI  19
$$

WIZ003>005-009-010-017-018-111200-
NORTH CENTRAL WISCONSIN

CITY           SKY/WX    TMP DP  RH WIND       PRES   REMARKS
MANITOWISH WTR LGT SNOW  14  14 100 S6        29.77F WCI   5
ARBOR VITAE    LGT SNOW  17  14  88 S7        29.78F WCI   7
WOODRUFF       LGT SNOW  17  14  88 S7        29.78F WCI   7
RHINELANDER    LGT SNOW  16  14  92 S5        29.79F FOG     WCI   9
EAGLE RIVER    LGT SNOW  15  10  83 S3        29.79F
LAND O LAKES   LGT SNOW  15  12  88 S5        29.80F WCI   7
PHILLIPS       LGT SNOW  17  16  94 S6        29.79F WCI   9
TOMAHAWK       LGT SNOW  16  14  89 CALM      29.81F
MEDFORD        LGT SNOW  18  16  90 S13       29.81F WCI   5
MERRILL        LGT SNOW  18  16  89 S5        29.84F WCI  11
$$

WIZ029-030-035-036-043>047-111200-
CENTRAL WISCONSIN

CITY           SKY/WX    TMP DP  RH WIND       PRES   REMARKS
WAUSAU         LGT SNOW  19  17  92 S12       29.83F FOG     WCI   7
MOSINEE        LGT SNOW  19  19 100 S8        29.87F WCI   9
MARSHFIELD     LGT SNOW  20  18  92 S10       29.83F FOG     WCI   9
STEVENS POINT  MIX PCPN  19  18  98 S5        29.89F WCI  12
WAUPACA        LGT SNOW  24  19  81 SE5       29.92F WCI  18
WAUTOMA        LGT SNOW  21  18  88 S5        29.93S FOG     WCI  15
WISC RAPIDS    LGT SNOW  21  19  92 S8        29.89F FOG     WCI  11
CAMP DOUGLAS   LGT SNOW  24  22  92 S5        29.89F FOG     WCI  18
$$

WIZ011>013-019>022-031-037>040-048>050-111200-
NORTHEAST WISCONSIN

CITY           SKY/WX    TMP DP  RH WIND       PRES   REMARKS
ANTIGO         LGT SNOW  17  13  86 S9        29.83F WCI   5
SHAWANO        CLOUDY    22  14  70 SE5       29.92F WCI  16
OCONTO         CLOUDY    18  13  82 SW3       29.94F
STURGEON BAY   CLOUDY    19  12  74 SE3       29.94F
GREEN BAY      CLOUDY    21  14  74 SE6       29.93F WCI  13
MANITOWOC      CLOUDY    20  15  81 CALM      29.95F
APPLETON       CLOUDY    23  14  68 E6        29.90F WCI  16
CLINTONVILLE   CLOUDY    21  14  73 SE6       29.91F WCI  14
OSHKOSH        LGT SNOW  22  18  85 S6        29.92F FOG     WCI  14
$$

WIZ032>034-041-042-053>061-111200-
SOUTHWEST WISCONSIN

CITY           SKY/WX    TMP DP  RH WIND       PRES   REMARKS
LA CROSSE      CLOUDY    27  23  85 S13       29.87F WCI  16
SPARTA         LGT SNOW  24  22  93 S3        29.90F
VIROQUA        CLOUDY    23  23 100 S10       29.87F WCI  13
BOSCOBEL       CLOUDY    27  22  81 CALM      29.91F
PRAIRIE DU CHI CLOUDY    27  21  77 E5        29.92F WCI  22
PLATTEVILLE    CLOUDY    26  25  96 SE7       29.93R WCI  18
$$

WIZ056-057-062-063-064-067-068-111200-
SOUTH CENTRAL WISCONSIN

CITY           SKY/WX    TMP DP  RH WIND       PRES   REMARKS
REEDSBURG      LGT SNOW  23  22  98 S5        29.92F WCI  16
BARABOO/DELLS  LGT SNOW  23  20  89 S7        29.92F VSB 1   WCI  15
LONE ROCK      LGT SNOW  25  23  93 E3        29.93F VSB 1
MINERAL POINT  LGT SNOW  27  27 100 S5        29.92S WCI  21
MADISON        LGT SNOW  24  22  91 S7        29.94S VSB 1   WCI  16
MIDDLETON      CLOUDY    25  23  90 S8        29.94F WCI  16
WATERTOWN      LGT SNOW  22  19  91 S5        29.95F WCI  15
MONROE         CLOUDY    25  21  86 S6        29.92F WCI  18
JANESVILLE     FLURRIES  27  23  86 SE3       29.95F
$$

WIZ051-052-058>065-066-070>072-111200-
SOUTHEAST WISCONSIN

CITY           SKY/WX    TMP DP  RH WIND       PRES   REMARKS
MILWAUKEE      CLOUDY    25  18  74 S6        29.98F WCI  18
WAUKESHA       FLURRIES  21  16  79 S5        29.97F WCI  15
MILWAUKEE/TIMM CLOUDY    25  16  68 S5        29.98F WCI  19
RACINE         CLOUDY    24  18  77 S5        30.00F WCI  18
BURLINGTON     FLURRIES  30  29  97 CALM      29.99S
KENOSHA        CLOUDY    25  18  74 S6        29.99F WCI  18
FOND DU LAC    LGT SNOW  23  16  74 S7        29.94F WCI  15
SHEBOYGAN      CLOUDY    23  19  85 CALM      29.95F
WEST BEND      CLOUDY    21  18  86 S3        29.95F
JUNEAU         LGT SNOW  21  18  86 SE5       29.95F WCI  15
$$

LSZ147-162-111200-
LAKE SUPERIOR

STATION/POSITION TIME  TEMP    WIND        PRES    WAVE
                       AIR SEA DIR/SP/G            HT/PER
                 (UTC) (F)     (DEG/KT/KT) (MB)    (FT/S)
DEVILS ISLAND    1000   21     200/ 12/ 16 1011.0F
SAXON HARBOR     1040   20                 1009.8R
$$

LMZ867-665-643>646-111200-
LAKE MICHIGAN

STATION/POSITION TIME  TEMP    WIND        PRES    WAVE
                       AIR SEA DIR/SP/G            HT/PER
                 (UTC) (F)     (DEG/KT/KT) (MB)    (FT/S)
NORTHPORT PIER   1040   18     160/  1/  4 1013.5F
KEWAUNEE LAKESHO 1030   19     290/  1/  2 1013.6F
SHEBOYGAN LAKESH 1000   26     240/  5/  6 1016.0F
PORT WASHINGTON  1040   25     250/  3/  4 1015.9F
MILWAUKEE LAKESH 1030   26     220/  7/  9   N/A
KENOSHA   LAKESH 1000   26     240/  3/  5 1016.3
$$

TC  - TEMPERATURE IN CELSIUS
VSB - VISIBILITY IN STATUTE MILES
WCI - WIND CHILL INDEX
HX  - HEAT INDEX





USA.gov is the U.S. government's official web portal to all federal, state and local government web resources and services.